DEAGZ EDXH-EDXH

Flight info

Callsign DEAGZ
Flight time 0h 1m
Altitude
Route
Aircraft C152

Departure

Time 2026-04-20 18:28
Airport Helgoland-Düne Airport (EDXH)

Arrival

Time 2026-04-20 18:30
Airport Helgoland-Düne Airport (EDXH)
Time Latitude Longitude Altitude Speed Heading
2026-04-20 18:24 54.18673 7.91488 1 ft 0 kts 144°
2026-04-20 18:26 54.18650 7.91506 3 ft 6 kts 220°
2026-04-20 18:26 54.18604 7.91417 3 ft 17 kts 231°
2026-04-20 18:26 54.18537 7.91395 5 ft 15 kts 139°
2026-04-20 18:27 54.18466 7.91444 10 ft 5 kts 263°
2026-04-20 18:27 54.18479 7.91439 6 ft 0 kts 30°
2026-04-20 18:27 54.18588 7.91536 30 ft 38 kts 42°
2026-04-20 18:27 54.18804 7.91686 268 ft 32 kts 47°
2026-04-20 18:28 54.18917 7.91956 408 ft 41 kts 93°
2026-04-20 18:28 54.18697 7.92433 474 ft 58 kts 106°
2026-04-20 18:28 54.18446 7.93005 574 ft 76 kts 140°
2026-04-20 18:28 54.17818 7.92711 687 ft 95 kts 190°
2026-04-20 18:29 54.17206 7.92120 742 ft 99 kts 226°
2026-04-20 18:29 54.17281 7.91148 661 ft 82 kts 322°
2026-04-20 18:29 54.17645 7.90549 560 ft 50 kts 21°
2026-04-20 18:29 54.17909 7.90897 313 ft 50 kts 45°
2026-04-20 18:30 54.18208 7.91194 154 ft 50 kts 41°
2026-04-20 18:30 54.18479 7.91434 6 ft 27 kts 51°
2026-04-20 18:30 54.18630 7.91600 102 ft 26 kts 46°
2026-04-20 18:30 54.18836 7.91852 162 ft 47 kts 43°
2026-04-20 18:31 54.19112 7.92071 421 ft 36 kts 52°
2026-04-20 18:31 54.18996 7.92562 432 ft 62 kts 107°
2026-04-20 18:31 54.18735 7.93244 397 ft 81 kts 112°
2026-04-20 18:31 54.18284 7.93237 652 ft 95 kts 231°
2026-04-20 18:32 54.17908 7.92251 780 ft 101 kts 234°
2026-04-20 18:32 54.17575 7.91272 685 ft 89 kts 254°
2026-04-20 18:32 54.17731 7.90574 516 ft 28 kts 51°
2026-04-20 18:32 54.17948 7.90839 396 ft 43 kts 47°
2026-04-20 18:33 54.18209 7.91128 307 ft 44 kts 49°
2026-04-20 18:33 54.18442 7.91403 84 ft 47 kts 41°
2026-04-20 18:33 54.18639 7.91564 58 ft 28 kts 53°
2026-04-20 18:33 54.18813 7.91784 210 ft 35 kts 48°
2026-04-20 18:34 54.18971 7.92077 362 ft 32 kts 73°
2026-04-20 18:34 54.19011 7.92521 402 ft 42 kts 86°
2026-04-20 18:34 54.18789 7.92848 456 ft 56 kts 120°
2026-04-20 18:34 54.18626 7.93032 529 ft 54 kts 131°
2026-04-20 18:35 54.18213 7.92495 607 ft 91 kts 220°
2026-04-20 18:35 54.17749 7.91624 612 ft 89 kts 218°
2026-04-20 18:35 54.17738 7.90799 489 ft 62 kts 345°
2026-04-20 18:35 54.18001 7.90969 343 ft 44 kts 62°
2026-04-20 18:36 54.18261 7.91259 235 ft 45 kts 42°
2026-04-20 18:36 54.18540 7.91508 10 ft 33 kts 51°
2026-04-20 18:36 54.18727 7.91679 42 ft 34 kts 46°
2026-04-20 18:36 54.18915 7.91864 173 ft 30 kts 49°
2026-04-20 18:37 54.18952 7.92110 229 ft 47 kts 140°
2026-04-20 18:37 54.18655 7.92348 316 ft 50 kts 124°
2026-04-20 18:37 54.18321 7.92631 493 ft 57 kts 132°
2026-04-20 18:37 54.17921 7.92435 581 ft 88 kts 227°
2026-04-20 18:38 54.17561 7.91579 652 ft 87 kts 230°
2026-04-20 18:38 54.17668 7.90720 469 ft 78 kts 332°
2026-04-20 18:38 54.17959 7.90877 421 ft 44 kts 53°
2026-04-20 18:38 54.18211 7.91215 228 ft 43 kts 44°
2026-04-20 18:39 54.18507 7.91472 23 ft 39 kts 41°
2026-04-20 18:39 54.18723 7.91676 98 ft 40 kts 46°
2026-04-20 18:39 54.18997 7.91632 102 ft 102 kts
2026-04-20 18:39 54.19131 7.92065 298 ft 62 kts 112°
2026-04-20 18:40 54.18867 7.92598 422 ft 59 kts 108°
2026-04-20 18:40 54.18420 7.92375 440 ft 107 kts 213°
2026-04-20 18:40 54.17850 7.91534 517 ft 99 kts 212°
2026-04-20 18:40 54.17924 7.90815 425 ft 40 kts 55°
2026-04-20 18:41 54.18171 7.91143 234 ft 45 kts 43°
2026-04-20 18:41 54.18446 7.91410 31 ft 45 kts 33°
2026-04-20 18:41 54.18606 7.91600 57 ft 32 kts 38°
2026-04-20 18:41 54.18888 7.91659 135 ft 16 kts 37°
2026-04-20 18:42 54.19155 7.91919 173 ft 48 kts 49°
2026-04-20 18:42 54.19135 7.92413 355 ft 57 kts 121°
2026-04-20 18:42 54.18792 7.92831 544 ft 64 kts 141°
2026-04-20 18:42 54.18275 7.92579 602 ft 99 kts 215°
2026-04-20 18:43 54.17801 7.91669 591 ft 107 kts 220°
2026-04-20 18:43 54.17789 7.90768 526 ft 59 kts 22°
2026-04-20 18:43 54.18101 7.91062 309 ft 55 kts 46°
2026-04-20 18:43 54.18428 7.91400 51 ft 47 kts 42°
2026-04-20 18:44 54.18609 7.91559 2 ft 35 kts 27°
2026-04-20 18:44 54.18851 7.91757 145 ft 43 kts 45°
2026-04-20 18:44 54.19074 7.92104 335 ft 43 kts 88°
2026-04-20 18:44 54.18913 7.92685 408 ft 62 kts 105°
2026-04-20 18:45 54.18472 7.92561 510 ft 101 kts 209°
2026-04-20 18:45 54.17922 7.91702 591 ft 106 kts 217°
2026-04-20 18:45 54.17722 7.90863 576 ft 72 kts 322°
2026-04-20 18:45 54.18006 7.90956 350 ft 49 kts 51°
2026-04-20 18:46 54.18197 7.91181 258 ft 51 kts 48°
2026-04-20 18:46 54.18497 7.91473 5 ft 32 kts 32°
2026-04-20 18:46 54.18701 7.91642 97 ft 40 kts 47°
2026-04-20 18:46 54.18927 7.91869 259 ft 43 kts 46°
2026-04-20 18:47 54.19166 7.92255 379 ft 49 kts 57°
2026-04-20 18:47 54.18886 7.92781 430 ft 70 kts 124°
2026-04-20 18:47 54.18415 7.92735 569 ft 104 kts 218°
2026-04-20 18:47 54.17872 7.91802 460 ft 114 kts 221°
2026-04-20 18:48 54.17735 7.90778 286 ft 67 kts 333°
2026-04-20 18:48 54.18008 7.90955 231 ft 49 kts 47°
2026-04-20 18:48 54.18325 7.91303 91 ft 53 kts 41°
2026-04-20 18:48 54.18585 7.91540 4 ft 33 kts 35°
2026-04-20 18:49 54.18826 7.91721 173 ft 38 kts 45°
2026-04-20 18:49 54.19063 7.92075 251 ft 50 kts 65°
2026-04-20 18:49 54.18894 7.92625 435 ft 58 kts 114°
2026-04-20 18:49 54.18355 7.92282 427 ft 106 kts 203°
2026-04-20 18:50 54.17731 7.91555 456 ft 112 kts 234°
2026-04-20 18:50 54.17950 7.90873 367 ft 50 kts 34°
2026-04-20 18:50 54.18290 7.91256 138 ft 66 kts 41°
2026-04-20 18:50 54.18608 7.91543 8 ft 38 kts 35°
2026-04-20 18:51 54.18864 7.91772 120 ft 46 kts 44°
2026-04-20 18:51 54.19062 7.92167 283 ft 45 kts 71°
2026-04-20 18:51 54.18906 7.92686 438 ft 61 kts 121°
2026-04-20 18:51 54.18392 7.92328 507 ft 98 kts 204°
2026-04-20 18:52 54.17867 7.91627 495 ft 91 kts 220°
2026-04-20 18:52 54.18013 7.90942 273 ft 44 kts 41°
2026-04-20 18:52 54.18300 7.91284 136 ft 55 kts 39°
2026-04-20 18:52 54.18581 7.91537 7 ft 32 kts 30°
2026-04-20 18:53 54.18838 7.91735 139 ft 43 kts 46°
2026-04-20 18:53 54.19044 7.92085 332 ft 41 kts 69°
2026-04-20 18:53 54.18798 7.92576 418 ft 61 kts 117°
2026-04-20 18:53 54.18344 7.92670 546 ft 91 kts 216°
2026-04-20 18:54 54.17838 7.91825 531 ft 100 kts 220°
2026-04-20 18:54 54.17889 7.90876 385 ft 69 kts 353°
2026-04-20 18:54 54.18207 7.91172 310 ft 56 kts 41°
2026-04-20 18:54 54.18528 7.91473 24 ft 46 kts 43°
2026-04-20 18:55 54.18765 7.91705 108 ft 37 kts 46°
2026-04-20 18:55 54.18921 7.91978 195 ft 30 kts 85°
2026-04-20 18:55 54.18842 7.92398 313 ft 52 kts 122°
2026-04-20 18:55 54.18460 7.92553 404 ft 82 kts 195°
2026-04-20 18:56 54.17975 7.91918 573 ft 86 kts 215°
2026-04-20 18:56 54.17811 7.91033 455 ft 83 kts 343°
2026-04-20 18:56 54.18213 7.91126 339 ft 57 kts 54°
2026-04-20 18:56 54.18565 7.91508 22 ft 57 kts 35°
2026-04-20 18:57 54.18857 7.91753 155 ft 37 kts 40°
2026-04-20 18:57 54.19075 7.92027 319 ft 41 kts 53°
2026-04-20 18:57 54.19057 7.92467 397 ft 61 kts 124°
2026-04-20 18:57 54.18703 7.92936 542 ft 66 kts 126°
2026-04-20 18:58 54.18203 7.92596 614 ft 109 kts 216°
2026-04-20 18:58 54.17655 7.91675 721 ft 108 kts 212°
2026-04-20 18:58 54.17362 7.90653 781 ft 98 kts 318°
2026-04-20 18:58 54.17792 7.90778 548 ft 78 kts 44°
2026-04-20 18:59 54.18296 7.91280 214 ft 74 kts 34°
2026-04-20 18:59 54.18658 7.91587 1 ft 44 kts 41°
2026-04-20 18:59 54.18949 7.91879 115 ft 52 kts 48°
2026-04-20 18:59 54.18933 7.92428 271 ft 58 kts 112°
2026-04-20 19:00 54.18655 7.92797 505 ft 76 kts 192°
2026-04-20 19:00 54.18181 7.92083 555 ft 100 kts 214°
2026-04-20 19:00 54.17638 7.91219 594 ft 109 kts 228°
2026-04-20 19:00 54.17806 7.90602 423 ft 53 kts 52°
2026-04-20 19:01 54.18107 7.91076 332 ft 59 kts 47°
2026-04-20 19:01 54.18473 7.91450 39 ft 56 kts 45°
2026-04-20 19:01 54.18785 7.91695 126 ft 43 kts 43°
2026-04-20 19:01 54.19035 7.92020 291 ft 47 kts 51°
2026-04-20 19:02 54.19152 7.92501 443 ft 58 kts 121°
2026-04-20 19:02 54.18792 7.92957 586 ft 66 kts 131°
2026-04-20 19:02 54.18257 7.92867 673 ft 101 kts 213°
2026-04-20 19:02 54.17714 7.92022 682 ft 104 kts 218°
2026-04-20 19:03 54.17687 7.90945 548 ft 87 kts 314°
2026-04-20 19:03 54.18075 7.91036 332 ft 68 kts 44°
2026-04-20 19:03 54.18454 7.91429 75 ft 58 kts 41°
2026-04-20 19:03 54.18739 7.91675 59 ft 36 kts 47°
2026-04-20 19:04 54.18976 7.91968 200 ft 41 kts 62°
2026-04-20 19:04 54.19111 7.92375 407 ft 40 kts 70°
2026-04-20 19:04 54.18893 7.92873 482 ft 63 kts 119°
2026-04-20 19:04 54.18572 7.93354 682 ft 62 kts 122°
2026-04-20 19:05 54.18096 7.92879 746 ft 111 kts 228°
2026-04-20 19:05 54.17597 7.91773 754 ft 120 kts 228°
2026-04-20 19:05 54.17439 7.90479 686 ft 106 kts 310°
2026-04-20 19:05 54.17856 7.90706 281 ft 78 kts 47°
2026-04-20 19:06 54.18310 7.91296 154 ft 78 kts 48°
2026-04-20 19:06 54.18696 7.91630 119 ft 49 kts 37°
2026-04-20 19:06 54.18578 7.92107 256 ft 51 kts 103°
2026-04-20 19:06 54.18274 7.92500 454 ft 59 kts 134°
2026-04-20 19:07 54.17899 7.92170 576 ft 100 kts 234°
2026-04-20 19:07 54.17526 7.91109 658 ft 112 kts 234°
2026-04-20 19:07 54.17119 7.89913 689 ft 117 kts 243°
2026-04-20 19:07 54.17448 7.89206 686 ft 75 kts 26°
2026-04-20 19:08 54.17846 7.89731 229 ft 95 kts 56°
2026-04-20 19:08 54.18400 7.90966 174 ft 62 kts 49°
2026-04-20 19:08 54.18589 7.91501 22 ft 42 kts 67°
2026-04-20 19:09 54.18820 7.91773 78 ft 40 kts 57°
2026-04-20 19:09 54.19054 7.91991 202 ft 42 kts 63°
2026-04-20 19:09 54.18963 7.92431 330 ft 65 kts 135°
2026-04-20 19:09 54.18485 7.92758 378 ft 93 kts 168°
2026-04-20 19:10 54.17929 7.92124 522 ft 102 kts 217°
2026-04-20 19:10 54.17437 7.91116 472 ft 117 kts 265°
2026-04-20 19:10 54.17780 7.90583 380 ft 55 kts 51°
2026-04-20 19:10 54.18096 7.91047 327 ft 66 kts 46°
2026-04-20 19:11 54.18413 7.91385 83 ft 47 kts 42°
2026-04-20 19:11 54.18604 7.91562 6 ft 18 kts 24°
2026-04-20 19:11 54.18682 7.91575 3 ft 0 kts 294°
2026-04-20 19:11 54.18661 7.91510 4 ft 8 kts 295°
2026-04-20 19:12 54.18675 7.91487 4 ft 0 kts 326°